Weather History for Hickory, NC

Change the Weather History Date:

Saturday, September 21, 2013

  Actual Average Record
Temperature  
Mean Temperature 67 °F -  
Max Temperature 70 °F 79 °F 90 °F (1963)
Min Temperature 64 °F 59 °F 42 °F (1962)
Cooling Degree Days 2    
Growing Degree Days 17 (Base 50)    
Moisture  
Dew Point 65 °F    
Average Humidity 91    
Maximum Humidity 100    
Minimum Humidity 83    
Precipitation  
Precipitation 1.07 in - - ()
Sea Level Pressure  
Sea Level Pressure 29.79 in    
Wind  
Wind Speed 4 mph (SSW)    
Max Wind Speed 12 mph    
Max Gust Speed 25 mph    
Visibility 5 miles    
Events Rain    
Averages and records for this station are not official NWS values.
T = Trace of Precipitation, MM = Missing Value Source: NWS Daily Summary

Daily Weather History Graph

Daily Weather History Graph

Search for Another Location

Airport:

Trip Planner

Search our weather history database for the weather conditions in past years. The results will help you decide how hot, cold, wet, or windy it might be!

Date:

Astronomy

Sep. 21, 2013 Rise Set
Actual Time 7:12 AM EDT 7:23 PM EDT
Civil Twilight 6:47 AM EDT 7:48 PM EDT
Nautical Twilight 6:17 AM EDT 8:18 PM EDT
Astronomical Twilight 5:47 AM EDT 8:48 PM EDT
Moon 8:40 PM EDT (9/21) 9:23 AM EDT (9/21)
Length of Visible Light 13h 01m
Length of Day
12h 10m
Waning Gibbous, 94% of the Moon is Illuminated
Sep 21
Waning Gibbous
Sep 26
Last Quarter
Oct 4
New
Oct 11
First Quarter
Oct 18
Full

Hourly Weather History & Observations

Time (EDT) Temp. Dew Point Humidity Pressure Visibility Wind Dir Wind Speed Gust Speed Precip Events Conditions
12:53 AM 69.1 °F 66.0 °F 90% 29.90 in 5.0 mi Calm Calm - N/A   Overcast
1:53 AM 69.1 °F 66.0 °F 90% 29.89 in 5.0 mi Calm Calm - N/A   Overcast
2:53 AM 69.1 °F 66.0 °F 90% 29.87 in 4.0 mi Calm Calm - N/A   Overcast
3:53 AM 69.1 °F 66.0 °F 90% 29.85 in 5.0 mi Calm Calm - N/A   Overcast
4:53 AM 69.1 °F 66.0 °F 90% 29.83 in 5.0 mi Calm Calm - N/A   Overcast
5:53 AM 69.1 °F 66.0 °F 90% 29.82 in 5.0 mi Calm Calm - N/A   Overcast
6:12 AM 68.0 °F 66.2 °F 94% 29.88 in 4.0 mi Calm Calm - N/A   Overcast
6:34 AM 68.0 °F 66.2 °F 94% 29.88 in 3.0 mi Calm Calm - N/A   Overcast
6:43 AM 68.0 °F 66.2 °F 94% 29.88 in 4.0 mi Calm Calm - N/A   Overcast
6:53 AM 68.0 °F 64.9 °F 90% 29.82 in 4.0 mi South 4.6 mph - N/A   Overcast
7:45 AM 66.2 °F 64.4 °F 94% 29.88 in 3.0 mi South 3.5 mph - N/A   Scattered Clouds
7:53 AM 66.9 °F 64.0 °F 90% 29.82 in 4.0 mi South 3.5 mph - N/A   Scattered Clouds
8:16 AM 66.2 °F 64.4 °F 94% 29.89 in 4.0 mi SSW 5.8 mph - N/A   Mostly Cloudy
8:50 AM 68.0 °F 64.4 °F 88% 29.89 in 5.0 mi South 8.1 mph - N/A   Mostly Cloudy
8:53 AM 68.0 °F 64.0 °F 87% 29.83 in 5.0 mi South 6.9 mph - N/A   Mostly Cloudy
9:39 AM 69.8 °F 64.4 °F 83% 29.88 in 8.0 mi SSW 6.9 mph - N/A   Mostly Cloudy
9:53 AM 69.1 °F 64.0 °F 84% 29.82 in 8.0 mi SSW 6.9 mph - N/A   Mostly Cloudy
10:53 AM 69.1 °F 64.9 °F 87% 29.82 in 7.0 mi South 9.2 mph - 0.00 in Rain Light Rain
11:53 AM 69.1 °F 66.0 °F 90% 29.80 in 5.0 mi South 6.9 mph - 0.01 in Rain Light Rain
12:43 PM 69.8 °F 66.2 °F 88% 29.84 in 5.0 mi South 6.9 mph - 0.01 in Rain Light Rain
12:53 PM 70.0 °F 66.0 °F 87% 29.78 in 5.0 mi South 8.1 mph - 0.01 in Rain Light Rain
1:02 PM 69.8 °F 66.2 °F 88% 29.84 in 5.0 mi South 5.8 mph - 0.00 in Rain Light Rain
1:13 PM 69.8 °F 66.2 °F 88% 29.83 in 5.0 mi South 8.1 mph - 0.00 in Rain Light Rain
1:32 PM 69.8 °F 66.2 °F 88% 29.83 in 5.0 mi South 8.1 mph - 0.01 in Rain Light Rain
1:53 PM 70.0 °F 66.0 °F 87% 29.75 in 5.0 mi South 9.2 mph - 0.02 in Rain Light Rain
2:01 PM 69.8 °F 66.2 °F 88% 29.81 in 5.0 mi South 6.9 mph - 0.00 in Rain Light Rain
2:16 PM 69.8 °F 66.2 °F 88% 29.80 in 7.0 mi Variable 4.6 mph - 0.00 in Rain Light Rain
2:40 PM 69.8 °F 66.2 °F 88% 29.78 in 6.0 mi South 9.2 mph - 0.01 in Rain Light Rain
2:50 PM 69.8 °F 66.2 °F 88% 29.78 in 6.0 mi South 10.4 mph - 0.01 in Rain Light Rain
2:53 PM 70.0 °F 66.9 °F 90% 29.72 in 7.0 mi South 9.2 mph - 0.01 in Rain Light Rain
3:16 PM 69.8 °F 66.2 °F 88% 29.77 in 9.0 mi South 6.9 mph - 0.00 in Rain Light Rain
3:53 PM 70.0 °F 66.9 °F 90% 29.69 in 9.0 mi South 8.1 mph - 0.01 in Rain Light Rain
4:02 PM 69.8 °F 66.2 °F 88% 29.75 in 9.0 mi South 9.2 mph - 0.00 in Rain Light Rain
4:12 PM 69.8 °F 66.2 °F 88% 29.75 in 3.0 mi South 10.4 mph 17.3 mph 0.03 in Rain Heavy Rain
4:15 PM 69.8 °F 66.2 °F 88% 29.75 in 1.8 mi SSW 5.8 mph 17.3 mph 0.06 in Rain Heavy Rain
4:24 PM 69.8 °F 66.2 °F 88% 29.75 in 1.2 mi SW 9.2 mph - 0.16 in Rain Heavy Rain
4:29 PM 69.8 °F 66.2 °F 88% 29.75 in 2.0 mi SW 10.4 mph - 0.16 in Rain Light Rain
4:31 PM 69.8 °F 66.2 °F 88% 29.75 in 3.0 mi SW 9.2 mph - 0.16 in Rain Light Rain
4:45 PM 69.8 °F 68.0 °F 94% 29.75 in 2.5 mi SW 5.8 mph - 0.19 in Rain Rain
4:53 PM 70.0 °F 68.0 °F 93% 29.69 in 1.8 mi West 9.2 mph - 0.23 in Rain Heavy Rain
5:06 PM 69.8 °F 66.2 °F 88% 29.76 in 0.8 mi WNW 11.5 mph 25.3 mph 0.14 in Rain Heavy Rain
5:21 PM 66.2 °F 64.4 °F 94% 29.76 in 1.0 mi WNW 9.2 mph 19.6 mph 0.31 in Rain Heavy Rain
5:43 PM 66.2 °F 64.4 °F 94% 29.77 in 0.8 mi West 6.9 mph - 0.46 in Rain Heavy Rain
5:50 PM 66.2 °F 64.4 °F 94% 29.77 in 1.0 mi WSW 5.8 mph - 0.53 in Rain Heavy Rain
5:53 PM 66.0 °F 64.9 °F 96% 29.71 in 0.8 mi WSW 4.6 mph - 0.56 in Rain Heavy Rain
6:01 PM 66.2 °F 64.4 °F 94% 29.76 in 1.0 mi SSW 4.6 mph - 0.04 in Rain Heavy Rain
6:10 PM 66.2 °F 64.4 °F 94% 29.76 in 3.0 mi SSW 5.8 mph - 0.06 in Rain Light Rain
6:53 PM 66.0 °F 64.0 °F 93% 29.72 in 3.0 mi NNW 3.5 mph - 0.09 in Rain Rain
7:15 PM 66.2 °F 64.4 °F 94% 29.77 in 2.5 mi Calm Calm - 0.04 in Rain Rain
7:20 PM 66.2 °F 64.4 °F 94% 29.77 in 3.0 mi NNW 3.5 mph - 0.04 in Rain Rain
7:29 PM 64.4 °F 64.4 °F 100% 29.77 in 4.0 mi North 4.6 mph - 0.05 in Rain Light Rain
7:40 PM 64.4 °F 64.4 °F 100% 29.76 in 8.0 mi NNE 3.5 mph - 0.06 in Rain Light Rain
7:49 PM 64.4 °F 64.4 °F 100% 29.76 in 6.0 mi North 3.5 mph - 0.07 in Rain Rain
7:53 PM 64.9 °F 64.0 °F 97% 29.71 in 5.0 mi NNE 3.5 mph - 0.08 in Rain Rain
8:53 PM 64.9 °F 64.0 °F 97% 29.72 in 10.0 mi NNE 3.5 mph - 0.01 in Rain Light Rain
9:53 PM 64.9 °F 63.0 °F 93% 29.71 in 10.0 mi NE 6.9 mph - 0.04 in Rain Light Rain
10:53 PM 64.0 °F 62.1 °F 93% 29.72 in 10.0 mi NE 5.8 mph - 0.00 in   Overcast
11:02 PM 64.4 °F 62.6 °F 94% 29.77 in 10.0 mi NE 5.8 mph - N/A   Overcast
11:13 PM 64.4 °F 62.6 °F 94% 29.77 in 10.0 mi NNE 6.9 mph - N/A   Overcast
11:53 PM 64.0 °F 62.1 °F 93% 29.72 in 10.0 mi North 4.6 mph - N/A   Overcast